Weather History for Carroll, IA

Change the Weather History Date:

Thursday, April 4, 2013

  Actual Average Record
Temperature  
Mean Temperature 44 °F -  
Max Temperature 57 °F 52 °F 82 °F (2005)
Min Temperature 32 °F 30 °F 10 °F (2002)
Degree Days  
Heating Degree Days 20    
Moisture  
Dew Point 31 °F    
Average Humidity 63    
Maximum Humidity 81    
Minimum Humidity 31    
Precipitation  
Precipitation 0.00 in - - ()
Sea Level Pressure  
Sea Level Pressure 30.12 in    
Wind  
Wind Speed 11 mph (WNW)    
Max Wind Speed 21 mph    
Max Gust Speed 26 mph    
Visibility 10 miles    
Events Rain    
Averages and records for this station are not official NWS values.
T = Trace of Precipitation, MM = Missing Value Source: NWS Daily Summary

Daily Weather History Graph

Daily Weather History Graph

Search for Another Location

Airport:

Trip Planner

Search our weather history database for the weather conditions in past years. The results will help you decide how hot, cold, wet, or windy it might be!

Date:

Astronomy

Apr. 04, 2013 Rise Set
Actual Time 6:56 AM CDT 7:48 PM CDT
Civil Twilight 6:27 AM CDT 8:16 PM CDT
Nautical Twilight 5:54 AM CDT 8:50 PM CDT
Astronomical Twilight 5:19 AM CDT 9:25 PM CDT
Moon 3:29 AM CDT (4/4) 2:02 PM CDT (4/4)
Length of Visible Light 13h 48m
Length of Day
12h 52m
Waning Crescent, 33% of the Moon is Illuminated
Apr 4
Waning Crescent
Apr 10
New
Apr 18
First Quarter
Apr 25
Full
May 2
Last Quarter

Hourly Weather History & Observations

Time (CDT) Temp. Windchill Dew Point Humidity Pressure Visibility Wind Dir Wind Speed Gust Speed Precip Events Conditions
12:15 AM 33.8 °F 26.4 °F 28.4 °F 81% 30.21 in 10.0 mi SSW 9.2 mph - N/A   Clear
12:35 AM 33.8 °F 25.8 °F 28.4 °F 81% 30.20 in 10.0 mi South 10.4 mph - N/A   Clear
12:55 AM 33.8 °F 25.8 °F 26.6 °F 75% 30.19 in 10.0 mi SSW 10.4 mph - N/A   Clear
1:15 AM 33.8 °F 27.0 °F 26.6 °F 75% 30.18 in 10.0 mi SSW 8.1 mph - N/A   Clear
1:35 AM 33.8 °F 27.0 °F 26.6 °F 75% 30.18 in 10.0 mi SSW 8.1 mph - N/A   Clear
1:55 AM 33.8 °F 25.8 °F 26.6 °F 75% 30.17 in 10.0 mi SSW 10.4 mph - N/A   Clear
2:15 AM 35.6 °F 27.5 °F 26.6 °F 70% 30.16 in 10.0 mi SSW 11.5 mph - N/A   Clear
2:35 AM 35.6 °F 27.1 °F 26.6 °F 70% 30.16 in 10.0 mi SSW 12.7 mph - N/A   Clear
2:55 AM 35.6 °F 27.1 °F 26.6 °F 70% 30.15 in 10.0 mi SW 12.7 mph - N/A   Clear
3:15 AM 33.8 °F 24.8 °F 26.6 °F 75% 30.16 in 10.0 mi SW 12.7 mph - N/A   Clear
3:35 AM 33.8 °F 25.3 °F 26.6 °F 75% 30.16 in 10.0 mi SW 11.5 mph - N/A   Clear
3:55 AM 32.0 °F 22.5 °F 26.6 °F 80% 30.16 in 10.0 mi SW 12.7 mph - N/A   Clear
4:15 AM 33.8 °F 24.8 °F 26.6 °F 75% 30.16 in 10.0 mi SW 12.7 mph - N/A   Clear
4:35 AM 33.8 °F 26.4 °F 26.6 °F 75% 30.16 in 10.0 mi SSW 9.2 mph - N/A   Clear
4:55 AM 32.0 °F 24.2 °F 26.6 °F 80% 30.16 in 10.0 mi SSW 9.2 mph - N/A   Clear
5:15 AM 32.0 °F 24.2 °F 26.6 °F 80% 30.15 in 10.0 mi SSW 9.2 mph - N/A   Clear
5:35 AM 32.0 °F 23.6 °F 26.6 °F 80% 30.14 in 10.0 mi SSW 10.4 mph - N/A   Clear
5:55 AM 32.0 °F 23.6 °F 26.6 °F 80% 30.14 in 10.0 mi SSW 10.4 mph - N/A   Clear
6:15 AM 32.0 °F 23.6 °F 26.6 °F 80% 30.14 in 10.0 mi SW 10.4 mph - N/A   Clear
6:35 AM 32.0 °F 24.2 °F 26.6 °F 80% 30.13 in 10.0 mi SSW 9.2 mph - N/A   Clear
6:55 AM 32.0 °F 23.6 °F 26.6 °F 80% 30.13 in 10.0 mi SSW 10.4 mph - N/A   Clear
7:15 AM 32.0 °F 24.8 °F 26.6 °F 80% 30.13 in 10.0 mi SSW 8.1 mph - N/A   Clear
7:35 AM 32.0 °F 27.5 °F 26.6 °F 80% 30.13 in 10.0 mi SSW 4.6 mph - N/A   Clear
7:55 AM 33.8 °F 28.6 °F 28.4 °F 81% 30.13 in 9.0 mi SW 5.8 mph - N/A   Clear
8:15 AM 35.6 °F 30.7 °F 30.2 °F 81% 30.13 in 10.0 mi WSW 5.8 mph - N/A   Clear
8:35 AM 37.4 °F 30.3 °F 30.2 °F 75% 30.13 in 10.0 mi WSW 10.4 mph - N/A   Clear
8:55 AM 39.2 °F 31.6 °F 32.0 °F 75% 30.13 in 10.0 mi WSW 12.7 mph - N/A   Clear
9:15 AM 42.8 °F 35.8 °F 32.0 °F 66% 30.12 in 10.0 mi WSW 13.8 mph - N/A   Clear
9:35 AM 44.6 °F 37.2 °F 32.0 °F 61% 30.11 in 10.0 mi WSW 17.3 mph - N/A   Clear
9:55 AM 46.4 °F 38.7 °F 33.8 °F 62% 30.10 in 10.0 mi WSW 20.7 mph - N/A   Clear
10:15 AM 48.2 °F - 33.8 °F 58% 30.10 in 10.0 mi WSW 17.3 mph - N/A   Clear
10:35 AM 50.0 °F - 35.6 °F 58% 30.12 in 10.0 mi West 19.6 mph 26.5 mph N/A   Clear
10:55 AM 50.0 °F - 35.6 °F 58% 30.10 in 10.0 mi WSW 17.3 mph - N/A   Partly Cloudy
11:35 AM 53.6 °F - 35.6 °F 51% 30.10 in 10.0 mi West 16.1 mph 26.5 mph N/A   Clear
11:55 AM 53.6 °F - 35.6 °F 51% 30.10 in 10.0 mi WNW 16.1 mph - N/A   Clear
12:15 PM 51.8 °F - 35.6 °F 54% 30.11 in 10.0 mi WNW 15.0 mph - N/A Rain Light Rain
12:35 PM 50.0 °F - 35.6 °F 58% 30.11 in 10.0 mi NW 13.8 mph - N/A   Partly Cloudy
12:55 PM 53.6 °F - 35.6 °F 51% 30.10 in - West 11.5 mph 18.4 mph N/A   Scattered Clouds
1:15 PM 53.6 °F - 35.6 °F 51% 30.10 in 10.0 mi NW 12.7 mph - N/A   Mostly Cloudy
1:35 PM 53.6 °F - 37.4 °F 54% 30.09 in 10.0 mi WNW 8.1 mph 16.1 mph N/A   Partly Cloudy
1:55 PM 55.4 °F - 35.6 °F 47% 30.09 in 10.0 mi WNW 8.1 mph 17.3 mph N/A   Partly Cloudy
2:15 PM 55.4 °F - 37.4 °F 51% 30.08 in 10.0 mi NNW 10.4 mph - N/A   Mostly Cloudy
2:35 PM 55.4 °F - 37.4 °F 51% 30.09 in 10.0 mi NW 11.5 mph - N/A   Partly Cloudy
2:55 PM 57.2 °F - 35.6 °F 44% 30.08 in 10.0 mi NW 12.7 mph 19.6 mph N/A   Clear
3:15 PM 57.2 °F - 35.6 °F 44% 30.08 in 10.0 mi NNW 9.2 mph 20.7 mph N/A   Clear
3:35 PM 57.2 °F - 37.4 °F 48% 30.07 in 10.0 mi NNW 16.1 mph - N/A   Clear
3:55 PM 57.2 °F - 35.6 °F 44% 30.07 in 10.0 mi NNW 11.5 mph 19.6 mph N/A   Clear
4:15 PM 57.2 °F - 33.8 °F 41% 30.06 in 10.0 mi North 12.7 mph 18.4 mph N/A   Clear
4:35 PM 57.2 °F - 30.2 °F 36% 30.06 in 10.0 mi North 13.8 mph - N/A   Clear
4:55 PM 57.2 °F - 26.6 °F 31% 30.06 in 10.0 mi NNW 11.5 mph - N/A   Clear
5:15 PM 57.2 °F - 26.6 °F 31% 30.06 in 10.0 mi North 15.0 mph - N/A   Clear
5:35 PM 57.2 °F - 30.2 °F 36% 30.06 in 10.0 mi North 11.5 mph 18.4 mph N/A   Clear
5:55 PM 57.2 °F - 30.2 °F 36% 30.07 in 10.0 mi North 9.2 mph 18.4 mph N/A   Clear
6:15 PM 57.2 °F - 30.2 °F 36% 30.07 in 10.0 mi North 11.5 mph 18.4 mph N/A   Clear
6:35 PM 55.4 °F - 28.4 °F 36% 30.07 in 10.0 mi NNE 12.7 mph 18.4 mph N/A   Clear
6:55 PM 55.4 °F - 26.6 °F 33% 30.08 in 10.0 mi North 13.8 mph - N/A   Clear
7:15 PM 53.6 °F - 30.2 °F 41% 30.08 in 10.0 mi North 10.4 mph 17.3 mph N/A   Clear
7:35 PM 50.0 °F - 32.0 °F 50% 30.08 in 10.0 mi NNE 9.2 mph - N/A   Clear
7:55 PM 48.2 °F - 32.0 °F 54% 30.09 in 10.0 mi North 8.1 mph - N/A   Partly Cloudy
8:15 PM 46.4 °F 42.4 °F 32.0 °F 57% 30.10 in 10.0 mi North 8.1 mph - N/A   Partly Cloudy
8:35 PM 44.6 °F 40.2 °F 32.0 °F 61% 30.10 in 10.0 mi North 8.1 mph - N/A   Mostly Cloudy
8:55 PM 42.8 °F 39.3 °F 32.0 °F 66% 30.10 in 10.0 mi North 5.8 mph - N/A   Overcast
9:15 PM 42.8 °F 39.3 °F 32.0 °F 66% 30.11 in 10.0 mi North 5.8 mph - N/A   Overcast
9:35 PM 42.8 °F 37.5 °F 32.0 °F 66% 30.12 in 10.0 mi North 9.2 mph - N/A   Mostly Cloudy
9:55 PM 42.8 °F 38.0 °F 32.0 °F 66% 30.13 in 10.0 mi North 8.1 mph - N/A   Clear
10:15 PM 41.0 °F 34.3 °F 32.0 °F 70% 30.13 in 10.0 mi North 11.5 mph - N/A   Clear
10:35 PM 39.2 °F 33.6 °F 32.0 °F 75% 30.13 in 10.0 mi North 8.1 mph - N/A   Clear
10:55 PM 39.2 °F 33.6 °F 32.0 °F 75% 30.14 in 10.0 mi North 8.1 mph - N/A   Clear
11:15 PM 39.2 °F 33.6 °F 32.0 °F 75% 30.14 in 10.0 mi North 8.1 mph - N/A   Clear
11:35 PM 37.4 °F 33.8 °F 32.0 °F 81% 30.14 in 10.0 mi NNW 4.6 mph 11.5 mph N/A   Clear
11:55 PM 35.6 °F 29.9 °F 30.2 °F 81% 30.15 in 10.0 mi North 6.9 mph - N/A   Clear